Mitchell, SD

7:43 PM CST on November 13, 2019 (GMT -0600)
Mitchell Municipal

Weather History for KMHE - October, 2019

Change the Weather History Date:

Monday, October 21, 2019

  Actual Average Record
Temperature  
Mean Temperature 44 °F 48 °F  
Max Temperature 49 °F 60 °F 91 °F (1927)
Min Temperature 39 °F 36 °F 10 °F (1913)
Degree Days  
Heating Degree Days 21 17  
Month to date heating degree days 345 285  
Since 1 July heating degree days 393 443  
Cooling Degree Days 0 0  
Month to date cooling degree days 0 7  
Year to date cooling degree days 937 824  
Moisture  
Dew Point 42 °F    
Average Humidity 79    
Maximum Humidity 93    
Minimum Humidity 65    
Precipitation  
Precipitation 0.08 in 0.05 in 0.97 in (1959)
Month to date precipitation 1.33 1.26  
Year to date precipitation 34.00 19.93  
Snow  
Snow 0.00 in - 1.00 in (1936)
Month to date snowfall T  
Since 1 July snowfall T  
Since 1 September snowfall T  
Snow Depth 0.00 in    
Sea Level Pressure  
Sea Level Pressure 29.52 in    
Wind  
Wind Speed 20 mph (NNW)    
Max Wind Speed 39 mph    
Max Gust Speed 55 mph    
Visibility 9 miles    
Events Rain    
T = Trace of Precipitation, MM = Missing Value Source: NWS Daily Summary

Daily Weather History Graph

Daily Weather History Graph

Search for Another Location

Airport or City:

Astronomy

Oct. 21, 2019 Rise Set
Actual Time 7:53 AM CDT 6:39 PM CDT
Civil Twilight 7:24 AM CDT 7:08 PM CDT
Nautical Twilight 6:51 AM CDT 7:41 PM CDT
Astronomical Twilight 6:17 AM CDT 8:14 PM CDT
Moon No Moon Rise 3:19 PM CDT (10/21)
Length of Visible Light 11h 43m
Length of Day
10h 45m
Waning Gibbous, 48% of the Moon is Illuminated
Oct 21
Waning Gibbous
Oct 27
New
Nov 4
First Quarter
Nov 12
Full
Nov 19
Last Quarter

Hourly Weather History & Observations

Time (CDT) Temp. Windchill Dew Point Humidity Pressure Visibility Wind Dir Wind Speed Gust Speed Precip Events Conditions
12:53 AM 46.0 °F 41.4 °F 43.0 °F 89% 29.47 in 10.0 mi East 9.2 mph - N/A   Clear
1:53 AM 46.9 °F - 43.0 °F 86% 29.44 in 10.0 mi ESE 8.1 mph - N/A   Scattered Clouds
2:53 AM 44.1 °F 40.8 °F 41.0 °F 89% 29.43 in 10.0 mi East 5.8 mph - N/A   Clear
3:53 AM 44.1 °F 42.5 °F 42.1 °F 93% 29.43 in 10.0 mi North 3.5 mph - N/A   Clear
4:16 AM 44.1 °F - 42.1 °F 93% 29.43 in 10.0 mi Calm Calm - N/A   Mostly Cloudy
4:53 AM 45.0 °F 43.5 °F 43.0 °F 93% 29.43 in 10.0 mi North 3.5 mph - N/A   Overcast
5:53 AM 46.9 °F - 44.1 °F 90% 29.44 in 10.0 mi NNE 5.8 mph - N/A   Overcast
6:44 AM 46.9 °F - 45.0 °F 93% 29.43 in 10.0 mi North 8.1 mph - N/A   Overcast
6:53 AM 46.9 °F - 45.0 °F 93% 29.44 in 10.0 mi NNW 5.8 mph - N/A   Overcast
7:10 AM 46.9 °F - 45.0 °F 93% 29.43 in 10.0 mi NNW 9.2 mph - N/A   Overcast
7:44 AM 48.0 °F - 45.0 °F 89% 29.42 in 10.0 mi NW 9.2 mph - N/A   Overcast
7:53 AM 48.0 °F - 45.0 °F 89% 29.42 in 10.0 mi NNW 10.4 mph - N/A   Overcast
8:29 AM 48.0 °F - 45.0 °F 89% 29.40 in 10.0 mi NW 15.0 mph - N/A   Overcast
8:53 AM 48.0 °F - 45.0 °F 89% 29.43 in 10.0 mi NNW 13.8 mph - N/A   Overcast
9:53 AM 48.0 °F - 45.0 °F 89% 29.43 in 10.0 mi NNW 16.1 mph - N/A   Overcast
10:53 AM 48.0 °F - 44.1 °F 86% 29.43 in 10.0 mi NNW 19.6 mph 29.9 mph N/A   Overcast
11:28 AM 48.0 °F - 44.1 °F 86% 29.42 in 10.0 mi NNW 24.2 mph 31.1 mph N/A   Overcast
11:53 AM 46.9 °F - 43.0 °F 86% 29.44 in 9.0 mi NNW 23.0 mph 35.7 mph N/A   Overcast
12:53 PM 45.0 °F 36.0 °F 42.1 °F 90% 29.47 in 9.0 mi NNW 25.3 mph 39.1 mph 0.00 in Rain Light Rain
1:45 PM 46.0 °F 37.4 °F 42.1 °F 86% 29.47 in 8.0 mi NNW 25.3 mph 39.1 mph 0.00 in Rain Light Rain
1:53 PM 46.0 °F 38.0 °F 42.1 °F 86% 29.49 in 8.0 mi NNW 21.9 mph 34.5 mph 0.00 in Rain Light Rain
2:03 PM 46.0 °F 37.6 °F 43.0 °F 89% 29.48 in 6.0 mi NNW 24.2 mph 33.4 mph 0.00 in Rain Light Rain
2:12 PM 46.0 °F 37.8 °F 43.0 °F 89% 29.48 in 5.0 mi NNW 23.0 mph 35.7 mph 0.00 in Rain Light Rain
2:53 PM 46.0 °F 37.8 °F 42.1 °F 86% 29.52 in 7.0 mi NNW 23.0 mph 40.3 mph 0.01 in Rain Light Rain
3:41 PM 46.9 °F - 43.0 °F 86% 29.53 in 3.0 mi NW 31.1 mph 41.4 mph 0.06 in Rain Rain
3:53 PM 46.9 °F - 42.1 °F 83% 29.55 in 7.0 mi NNW 31.1 mph 40.3 mph 0.06 in Rain Light Rain
4:53 PM 46.0 °F 36.9 °F 41.0 °F 83% 29.59 in 10.0 mi NW 28.8 mph 43.7 mph 0.01 in   Overcast
5:53 PM 45.0 °F 34.9 °F 39.9 °F 82% 29.64 in 10.0 mi NW 32.2 mph 49.5 mph N/A   Overcast
6:53 PM 44.1 °F 33.3 °F 39.0 °F 82% 29.68 in 10.0 mi NW 34.5 mph 48.3 mph N/A   Overcast
7:53 PM 44.1 °F 34.2 °F 39.0 °F 82% 29.71 in 10.0 mi NW 28.8 mph 48.3 mph 0.00 in Rain Light Rain
8:53 PM 45.0 °F 35.4 °F 37.9 °F 76% 29.72 in 10.0 mi NNW 28.8 mph 44.9 mph 0.00 in   Overcast
9:53 PM 44.1 °F 34.4 °F 36.0 °F 73% 29.75 in 10.0 mi NW 27.6 mph 43.7 mph N/A   Overcast
10:50 PM 42.8 °F 31.8 °F 33.8 °F 70% 29.75 in 10.0 mi NW 33.4 mph 44.9 mph N/A   Overcast
10:53 PM 44.1 °F 33.5 °F 34.0 °F 68% 29.77 in 10.0 mi NW 33.4 mph 44.9 mph N/A   Overcast
11:53 PM 41.0 °F 30.2 °F 32.0 °F 70% 29.79 in 10.0 mi NW 27.6 mph 40.3 mph N/A   Partly Cloudy